• în Republica Moldova
  • Lista ţărilor
  • Pe 7 zile
  • Temperatura apei
  • Hartă satelitară
  • Meteo pe hartă
  • Widget-uri
  • user-avatar
    Intrare

    Meteo pe oră la Shkoder

    Astăzi, 27 Februarie, Luni

    Timp Temperatura Precipitaţii Vânt Presiune Umiditate
    00:00 +9°C° 0 mm 1 m/s 742 mmHg 90%
    01:00 +8°C° 0 mm 1 m/s 741 mmHg 91%
    02:00 +8°C° 0 mm 1 m/s 741 mmHg 90%
    03:00 +8°C° 0 mm 1 m/s 741 mmHg 90%
    04:00 +8°C° 0 mm 1 m/s 741 mmHg 90%
    05:00 +8°C° 0 mm 1 m/s 741 mmHg 89%
    06:00 +9°C° 0 mm 1 m/s 741 mmHg 89%
    07:00 +10°C° 0 mm 1 m/s 741 mmHg 88%
    08:00 +11°C° 0 mm 1 m/s 741 mmHg 83%
    09:00 +13°C° 0 mm 1 m/s 741 mmHg 78%
    10:00 +15°C° 0 mm 1 m/s 741 mmHg 73%
    11:00 +16°C° 0 mm 1 m/s 741 mmHg 71%
    12:00 +18°C° 0 mm 1 m/s 740 mmHg 69%
    13:00 +18°C° 0 mm 1 m/s 740 mmHg 67%
    14:00 +18°C° 0 mm 1 m/s 740 mmHg 71%
    15:00 +16°C° 0 mm 1 m/s 740 mmHg 74%
    16:00 +16°C° 0 mm 1 m/s 739 mmHg 78%
    17:00 +14°C° 0 mm 1 m/s 739 mmHg 82%
    18:00 +12°C° 0 mm 1 m/s 739 mmHg 87%
    19:00 +11°C° 0 mm 1 m/s 739 mmHg 91%
    20:00 +10°C° 0 mm 1 m/s 740 mmHg 91%
    21:00 +10°C° 0 mm 1 m/s 740 mmHg 91%
    22:00 +10°C° 0 mm 1 m/s 740 mmHg 91%
    23:00 +9°C° 0 mm 1 m/s 740 mmHg 91%

    Mâine, 28 Februarie, Marţi

    Timp Temperatura Precipitaţii Vânt Presiune Umiditate
    00:00 +9°C° 0 mm 1 m/s 740 mmHg 91%
    01:00 +9°C° 0 mm 1 m/s 740 mmHg 92%
    02:00 +9°C° 0 mm 1 m/s 739 mmHg 92%
    03:00 +9°C° 0 mm 1 m/s 739 mmHg 92%
    04:00 +8°C° 0 mm 2 m/s 739 mmHg 92%
    05:00 +8°C° 0 mm 2 m/s 739 mmHg 91%
    06:00 +8°C° 0 mm 2 m/s 739 mmHg 90%
    07:00 +8°C° 0 mm 2 m/s 739 mmHg 90%
    08:00 +10°C° 0 mm 2 m/s 739 mmHg 85%
    09:00 +13°C° 0 mm 2 m/s 739 mmHg 80%
    10:00 +14°C° 0 mm 3 m/s 739 mmHg 76%
    11:00 +14°C° 0 mm 3 m/s 739 mmHg 76%
    12:00 +14°C° 0 mm 3 m/s 738 mmHg 76%
    13:00 +14°C° 0 mm 4 m/s 738 mmHg 75%
    14:00 +14°C° 0,1 mm 4 m/s 737 mmHg 78%
    15:00 +14°C° 0,1 mm 3 m/s 737 mmHg 81%
    16:00 +13°C° 0,1 mm 3 m/s 737 mmHg 84%
    17:00 +12°C° 0,1 mm 3 m/s 737 mmHg 88%
    18:00 +11°C° 0,1 mm 3 m/s 737 mmHg 92%
    19:00 +10°C° 0,1 mm 3 m/s 737 mmHg 95%
    20:00 +10°C° 0,2 mm 3 m/s 737 mmHg 95%
    21:00 +11°C° 0,2 mm 3 m/s 737 mmHg 95%
    22:00 +11°C° 0,2 mm 4 m/s 737 mmHg 95%
    23:00 +11°C° 0,3 mm 4 m/s 737 mmHg 94%

    Poimâine, 1 Martie, Miercuri

    Timp Temperatura Precipitaţii Vânt Presiune Umiditate
    00:00 +11°C° 0,3 mm 4 m/s 737 mmHg 94%
    01:00 +11°C° 0,3 mm 4 m/s 737 mmHg 93%
    02:00 +10°C° 0,5 mm 5 m/s 737 mmHg 94%
    03:00 +10°C° 0,5 mm 5 m/s 736 mmHg 94%
    04:00 +9°C° 0,5 mm 5 m/s 736 mmHg 94%
    05:00 +9°C° 0,8 mm 5 m/s 736 mmHg 94%
    06:00 +9°C° 0,8 mm 5 m/s 735 mmHg 94%
    07:00 +9°C° 0,8 mm 5 m/s 735 mmHg 95%
    08:00 +10°C° 1 mm 6 m/s 735 mmHg 94%
    09:00 +10°C° 1 mm 6 m/s 735 mmHg 93%
    10:00 +10°C° 1 mm 7 m/s 734 mmHg 92%
    11:00 +10°C° 2,1 mm 7 m/s 734 mmHg 92%
    12:00 +10°C° 2,1 mm 6 m/s 733 mmHg 92%
    13:00 +10°C° 2,1 mm 6 m/s 733 mmHg 93%
    14:00 +10°C° 3,8 mm 5 m/s 733 mmHg 93%
    15:00 +10°C° 3,8 mm 4 m/s 733 mmHg 94%
    16:00 +10°C° 3,8 mm 3 m/s 733 mmHg 94%
    17:00 +9°C° 0,4 mm 3 m/s 734 mmHg 94%
    18:00 +9°C° 0,4 mm 2 m/s 735 mmHg 93%
    19:00 +8°C° 0,4 mm 2 m/s 736 mmHg 93%
    20:00 +7°C° 0 mm 2 m/s 736 mmHg 92%
    21:00 +7°C° 0 mm 2 m/s 737 mmHg 92%
    22:00 +6°C° 0 mm 2 m/s 738 mmHg 91%
    23:00 +6°C° 0 mm 2 m/s 738 mmHg 91%

    2 Martie, Joi

    Timp Temperatura Precipitaţii Vânt Presiune Umiditate
    00:00 +6°C° 0 mm 2 m/s 739 mmHg 90%
    01:00 +5°C° 0 mm 2 m/s 739 mmHg 90%
    02:00 +5°C° 0 mm 2 m/s 740 mmHg 90%
    03:00 +5°C° 0 mm 2 m/s 740 mmHg 90%
    04:00 +4°C° 0 mm 2 m/s 740 mmHg 91%
    05:00 +4°C° 0 mm 2 m/s 740 mmHg 89%
    06:00 +3°C° 0 mm 3 m/s 741 mmHg 88%
    07:00 +3°C° 0 mm 3 m/s 741 mmHg 87%
    08:00 +6°C° 0 mm 2 m/s 742 mmHg 80%
    09:00 +8°C° 0 mm 2 m/s 742 mmHg 73%
    10:00 +9°C° 0 mm 2 m/s 742 mmHg 65%
    11:00 +10°C° 0 mm 2 m/s 742 mmHg 62%
    12:00 +12°C° 0 mm 1 m/s 742 mmHg 58%
    13:00 +13°C° 0 mm 1 m/s 742 mmHg 54%
    14:00 +13°C° 0 mm 1 m/s 741 mmHg 58%
    15:00 +13°C° 0 mm 1 m/s 741 mmHg 61%
    16:00 +13°C° 0 mm 1 m/s 741 mmHg 64%
    17:00 +11°C° 0 mm 1 m/s 741 mmHg 68%
    18:00 +9°C° 0 mm 1 m/s 742 mmHg 72%
    19:00 +7°C° 0 mm 1 m/s 742 mmHg 76%
    20:00 +7°C° 0 mm 1 m/s 742 mmHg 73%
    21:00 +7°C° 0 mm 1 m/s 742 mmHg 69%
    22:00 +7°C° 0 mm 1 m/s 742 mmHg 66%
    23:00 +7°C° 0 mm 1 m/s 742 mmHg 64%

    3 Martie, Vineri

    Timp Temperatura Precipitaţii Vânt Presiune Umiditate
    00:00 +7°C° 0 mm 1 m/s 742 mmHg 61%
    01:00 +7°C° 0 mm 1 m/s 742 mmHg 59%
    02:00 +7°C° 0 mm 1 m/s 742 mmHg 59%
    03:00 +7°C° 0 mm 1 m/s 742 mmHg 58%
    04:00 +7°C° 0 mm 1 m/s 742 mmHg 58%
    05:00 +7°C° 0 mm 1 m/s 742 mmHg 59%
    06:00 +7°C° 0 mm 1 m/s 742 mmHg 60%
    07:00 +7°C° 0 mm 1 m/s 742 mmHg 62%
    08:00 +10°C° 0 mm 1 m/s 742 mmHg 58%
    09:00 +12°C° 0 mm 1 m/s 742 mmHg 55%
    10:00 +15°C° 0 mm 1 m/s 742 mmHg 51%
    11:00 +15°C° 0 mm 1 m/s 742 mmHg 51%
    12:00 +16°C° 0 mm 1 m/s 742 mmHg 51%
    13:00 +18°C° 0 mm 1 m/s 741 mmHg 50%
    14:00 +16°C° 0 mm 1 m/s 741 mmHg 56%
    15:00 +16°C° 0 mm 1 m/s 741 mmHg 61%
    16:00 +15°C° 0 mm 1 m/s 741 mmHg 66%
    17:00 +13°C° 0 mm 1 m/s 741 mmHg 72%
    18:00 +11°C° 0 mm 1 m/s 741 mmHg 78%
    19:00 +9°C° 0 mm 1 m/s 741 mmHg 84%
    20:00 +8°C° 0 mm 1 m/s 742 mmHg 81%
    21:00 +8°C° 0 mm 1 m/s 742 mmHg 79%
    22:00 +8°C° 0 mm 1 m/s 742 mmHg 77%
    23:00 +8°C° 0 mm 1 m/s 742 mmHg 76%

    4 Martie, Sâmbătă

    Timp Temperatura Precipitaţii Vânt Presiune Umiditate
    00:00 +7°C° 0 mm 1 m/s 742 mmHg 75%
    01:00 +7°C° 0 mm 1 m/s 742 mmHg 74%
    02:00 +7°C° 0 mm 1 m/s 742 mmHg 73%
    03:00 +7°C° 0 mm 1 m/s 742 mmHg 73%
    04:00 +7°C° 0 mm 1 m/s 742 mmHg 72%
    05:00 +7°C° 0 mm 1 m/s 742 mmHg 73%
    06:00 +7°C° 0 mm 1 m/s 742 mmHg 73%
    07:00 +8°C° 0 mm 1 m/s 743 mmHg 73%
    08:00 +10°C° 0 mm 1 m/s 742 mmHg 68%
    09:00 +12°C° 0 mm 2 m/s 742 mmHg 64%
    10:00 +14°C° 0 mm 2 m/s 742 mmHg 59%
    11:00 +15°C° 0 mm 2 m/s 742 mmHg 57%
    12:00 +15°C° 0 mm 2 m/s 742 mmHg 56%
    13:00 +16°C° 0 mm 2 m/s 741 mmHg 54%
    14:00 +16°C° 0 mm 2 m/s 741 mmHg 57%
    15:00 +15°C° 0 mm 2 m/s 741 mmHg 60%
    16:00 +15°C° 0 mm 1 m/s 741 mmHg 63%
    17:00 +13°C° 0 mm 1 m/s 742 mmHg 68%
    18:00 +11°C° 0 mm 1 m/s 742 mmHg 72%
    19:00 +9°C° 0 mm 1 m/s 742 mmHg 76%
    20:00 +8°C° 0 mm 1 m/s 742 mmHg 75%
    21:00 +8°C° 0 mm 1 m/s 742 mmHg 74%
    22:00 +8°C° 0 mm 1 m/s 743 mmHg 72%
    23:00 +8°C° 0 mm 1 m/s 743 mmHg 73%
    Arată mai mult